Regional Weather Roundup
Issued by NWS

Home | Current Version | Previous Version | Graphics & Text | Print | Product List | Glossary On
Versions: 1 2 3 4 5 6 7 8 9 10 11 12 13 14 15 16 17 18 19 20 21 22 23 24 25 26 27 28 29 30 31 32 33 34 35 36 37 38 39 40 41 42 43 44 45 46 47 48 49 50
000
ASUS43 KLOT 111106
RWRIL

ILLINOIS REGIONAL WEATHER ROUNDUP
NATIONAL WEATHER SERVICE CHICAGO/ROMEOVILLE IL
600 AM CDT FRI JUL 11 2014

NOTE: "FAIR" INDICATES FEW OR NO CLOUDS BELOW 12,000 FEET WITH NO
SIGNIFICANT WEATHER AND/OR OBSTRUCTIONS TO VISIBILITY.

* THESE STATIONS ARE NOT UNDER NWS QUALITY CONTROL. THEY ALSO MAY NOT
  REPORT WEATHER SUCH AS PRECIPITATION OR FOG.

ILZ001-002-007-009-015-016-024-111200-
NORTHWEST ILLINOIS

CITY           SKY/WX    TMP DP  RH WIND       PRES   REMARKS
MOLINE         MOCLDY    63  56  78 S7        30.15R
STERLING*      MOCLDY    57  54  88 SE6       30.18R
SAVANNA*       MOCLDY    62  58  86 CALM      30.16S
$$

ILZ003-004-008-010-011-017-018-111200-
NORTH CENTRAL ILLINOIS

CITY           SKY/WX    TMP DP  RH WIND       PRES   REMARKS
ROCKFORD       PTCLDY    59  53  80 CALM      30.20S
FREEPORT*      PTCLDY    56  54  92 CALM      30.20R
ROCHELLE*      PTCLDY    55  53  92 CALM      30.19R
DE KALB*       CLEAR     56  51  84 S5        30.20R
PERU*          PTCLDY    59  56  90 E3        30.19R
$$

ILZ005-006-012>014-019>023-111200-
NORTHEAST ILLINOIS

CITY           SKY/WX    TMP DP  RH WIND       PRES   REMARKS
CHICAGO-OHARE  PTCLDY    61  51  70 S3        30.19R
CHICAGO-MIDWAY PTCLDY    63  54  72 S3        30.19R
AURORA         FAIR      55  51  86 CALM      30.20R
LANSING*       CLEAR     53  51  90 CALM      30.20R
JOLIET*        CLEAR     55  51  86 CALM      30.20R
WAUKEGAN       CLEAR     58  54  86 SW3       30.18S
DUPAGE AIRPORT CLEAR     58  53  84 CALM      30.19R
KANKAKEE*      CLEAR     53  52  97 NE5       30.20S
WHEELING       CLEAR     61  55  81 CALM      30.20R
MORRIS*        CLEAR     58  57  98 CALM      30.19R
ROMEOVILLE*    CLEAR     57  51  82 SE5       30.19S
NORTHERLY ISL    N/A     64  53  67 S3          N/A
$$

LMZ740>746-111200-
SOUTHERN LAKE MICHIGAN

STATION/POSITION SKY/WX   TEMP    WIND        PRES    VSBY  WAVE
                          AIR SEA DIR/SP/G                  HT/PER
                          (F)     (DEG/KT/KT) (MB)    (MI)  (FT/S)
SOUTHERN BUOY              61 58  150/  4/  4 1022.5R         0
WAUKEGAN HARBOR            62     210/  5/  5 1023.4R
HARRISON CRIB              65     190/  7/  8   N/A
BURNHAM HARBOR             64     200/  3/  4   N/A
CALUMET HARBOR             62     180/  2/  3 1022.9S
MICHIGAN CITY              59     120/  8/  9   N/A
$$

ILZ025>027-034>036-040-047-049-050-058-095>099-111200-
WEST-CENTRAL ILLINOIS

CITY           SKY/WX    TMP DP  RH WIND       PRES   REMARKS
QUINCY         CLEAR     60  55  83 SE6       30.14S
GALESBURG*     PTCLDY    60  56  87 SE3       30.16S
MACOMB*        CLEAR     57  55  92 SE7       30.18R
JACKSONVILLE*  CLEAR     58  55  89 CALM      30.17R
PITTSFIELD*    CLEAR     59  56  89 CALM      30.17R
$$

ILZ028>032-037-038-041>044-048-051>054-059>061-111200-
CENTRAL ILLINOIS

CITY           SKY/WX    TMP DP  RH WIND       PRES   REMARKS
PONTIAC        CLEAR     54  54 100 CALM      30.19R FOG
BLOOMINGTON    PTCLDY    57  52  84 SE3       30.20R
DECATUR        CLEAR     58  53  84 SE3       30.18S
PEORIA         CLEAR     64  54  69 SE5       30.17S
LACON*         PTCLDY    59  54  82 S3        30.17S
LINCOLN*       CLEAR     56  54  91 CALM      30.16S
SPRINGFIELD    CLEAR     59  55  87 E3        30.18R
TAYLORVILLE    CLEAR     59  54  82 SE5       30.17R
$$

ILZ033-039-045-046-055>057-062-063-111200-
EAST-CENTRAL ILLINOIS

CITY           SKY/WX    TMP DP  RH WIND       PRES   REMARKS
CHAMPAIGN      PTCLDY    58  55  90 E7        30.18S
RANTOUL*       PTCLDY    60  54  80 CALM      30.19S
MATTOON        CLEAR     59  54  83 SE3       30.17S
PARIS*         PTCLDY    54  54  98 CALM      30.20R
$$

ILZ079-100>102-111200-
SOUTHWEST ILLINOIS

CITY           SKY/WX    TMP DP  RH WIND       PRES   REMARKS
ALTON          CLEAR     59  59 100 CALM      30.16S
BELLEVILLE     CLEAR     60  60  99 CALM      30.15R
CAHOKIA*       CLEAR     60  58  92 CALM      30.15R
SPARTA*        CLEAR     61  57  88 CALM      30.16R
$$

ILZ064>066-069>071-074>076-080>082-084>086-088>090-092>094-111200-
SOUTH-CENTRAL ILLINOIS

CITY           SKY/WX    TMP DP  RH WIND       PRES   REMARKS
CARBONDALE     FOG       61  59  93 CALM      30.15R VSB 1/2
CAIRO*         CLEAR     67  64  91 CALM      30.15R
MARION         FOG       59  59 100 CALM      30.16R VSB 1/4
MT. VERNON     CLEAR     61  55  82 N5        30.17R
CENTRALIA*     CLEAR     61  56  85 E5        30.16S
SALEM*         CLEAR     65  59  82 E3        30.17S
METROPOLIS*    CLEAR     63  63  99 CALM      30.14R FOG
$$

ILZ067-068-072-073-078-083-087-091-111200-
SOUTHEAST ILLINOIS

CITY           SKY/WX    TMP DP  RH WIND       PRES   REMARKS
FLORA*         CLEAR     58  56  91 N3        30.18R
HARRISBURG*    CLEAR     59  59 100 CALM      30.17R
ROBINSON*      CLEAR     57  56  97 CALM      30.19R
CARMI*         CLEAR     59  59  99 CALM      30.16R
$$

ABBREVIATIONS USED IN REMARKS
   TC - TEMPERATURE IN CELSIUS
  WCI - WIND CHILL INDEX
   HX - HEAT INDEX
  VSB - VISIBILITY
$$



USA.gov is the U.S. government's official web portal to all federal, state and local government web resources and services.